Tiempo cada hora Gölcük

Hoy, 5 Diciembre, Sábado

Tiempo Temperatura Precipitaciones Viento Presión Humedad
00:00 +13°C° 0 mm 1 mps 761 mmHg 64%
01:00 +13°C° 0 mm 1 mps 761 mmHg 64%
02:00 +13°C° 0 mm 1 mps 761 mmHg 63%
03:00 +12°C° 0 mm 1 mps 761 mmHg 63%
04:00 +12°C° 0 mm 1 mps 761 mmHg 63%
05:00 +12°C° 0 mm 1 mps 761 mmHg 63%
06:00 +12°C° 0 mm 1 mps 761 mmHg 63%
07:00 +12°C° 0 mm 1 mps 761 mmHg 63%
08:00 +12°C° 0 mm 1 mps 761 mmHg 63%
09:00 +14°C° 0 mm 1 mps 761 mmHg 58%
10:00 +16°C° 0 mm 1 mps 761 mmHg 53%
11:00 +19°C° 0 mm 1 mps 761 mmHg 48%
12:00 +19°C° 0 mm 1 mps 761 mmHg 47%
13:00 +20°C° 0 mm 1 mps 760 mmHg 46%
14:00 +20°C° 0 mm 1 mps 760 mmHg 45%
15:00 +19°C° 0 mm 1 mps 760 mmHg 51%
16:00 +16°C° 0 mm 1 mps 760 mmHg 57%
17:00 +15°C° 0 mm 1 mps 760 mmHg 63%
18:00 +14°C° 0 mm 1 mps 761 mmHg 64%
19:00 +14°C° 0 mm 1 mps 761 mmHg 65%
20:00 +13°C° 0 mm 1 mps 761 mmHg 67%
21:00 +13°C° 0 mm 1 mps 761 mmHg 67%
22:00 +13°C° 0 mm 1 mps 761 mmHg 68%
23:00 +12°C° 0 mm 1 mps 761 mmHg 69%

Mañana, 6 Diciembre, Domingo

Tiempo Temperatura Precipitaciones Viento Presión Humedad
00:00 +12°C° 0 mm 1 mps 762 mmHg 70%
01:00 +12°C° 0 mm 1 mps 762 mmHg 72%
02:00 +12°C° 0 mm 1 mps 762 mmHg 73%
03:00 +11°C° 0 mm 1 mps 762 mmHg 75%
04:00 +11°C° 0 mm 1 mps 761 mmHg 77%
05:00 +11°C° 0 mm 1 mps 761 mmHg 79%
06:00 +11°C° 0 mm 1 mps 761 mmHg 79%
07:00 +11°C° 0 mm 1 mps 762 mmHg 79%
08:00 +12°C° 0 mm 2 mps 762 mmHg 79%
09:00 +13°C° 0 mm 2 mps 762 mmHg 74%
10:00 +14°C° 0 mm 2 mps 761 mmHg 69%
11:00 +16°C° 0 mm 2 mps 761 mmHg 64%
12:00 +16°C° 0 mm 2 mps 761 mmHg 64%
13:00 +16°C° 0 mm 3 mps 760 mmHg 63%
14:00 +17°C° 0 mm 3 mps 760 mmHg 62%
15:00 +14°C° 0 mm 3 mps 760 mmHg 69%
16:00 +13°C° 0 mm 3 mps 760 mmHg 76%
17:00 +12°C° 0 mm 4 mps 760 mmHg 83%
18:00 +12°C° 0 mm 3 mps 760 mmHg 84%
19:00 +11°C° 0 mm 3 mps 760 mmHg 85%
20:00 +11°C° 0 mm 3 mps 760 mmHg 85%
21:00 +11°C° 0 mm 3 mps 760 mmHg 85%
22:00 +11°C° 0 mm 3 mps 760 mmHg 85%
23:00 +10°C° 0 mm 3 mps 760 mmHg 85%

Pasado mañana, 7 Diciembre, Lunes

Tiempo Temperatura Precipitaciones Viento Presión Humedad
00:00 +10°C° 0 mm 3 mps 760 mmHg 85%
01:00 +10°C° 0 mm 2 mps 760 mmHg 85%
02:00 +10°C° 0 mm 2 mps 760 mmHg 84%
03:00 +10°C° 0 mm 2 mps 760 mmHg 84%
04:00 +9°C° 0 mm 2 mps 759 mmHg 85%
05:00 +9°C° 0 mm 2 mps 759 mmHg 85%
06:00 +9°C° 0 mm 2 mps 759 mmHg 84%
07:00 +9°C° 0 mm 2 mps 759 mmHg 82%
08:00 +9°C° 0 mm 2 mps 759 mmHg 81%
09:00 +12°C° 0 mm 2 mps 758 mmHg 74%
10:00 +12°C° 0 mm 3 mps 758 mmHg 67%
11:00 +14°C° 0 mm 3 mps 758 mmHg 60%
12:00 +16°C° 0 mm 3 mps 757 mmHg 58%
13:00 +16°C° 0 mm 3 mps 757 mmHg 56%
14:00 +17°C° 0 mm 3 mps 756 mmHg 54%
15:00 +16°C° 0 mm 3 mps 756 mmHg 59%
16:00 +14°C° 0 mm 3 mps 756 mmHg 64%
17:00 +14°C° 0 mm 2 mps 756 mmHg 68%
18:00 +14°C° 0.4 mm 2 mps 756 mmHg 73%
19:00 +14°C° 0.4 mm 2 mps 756 mmHg 78%
20:00 +14°C° 0.4 mm 2 mps 757 mmHg 83%
21:00 +13°C° 0 mm 2 mps 757 mmHg 83%
22:00 +13°C° 0 mm 1 mps 757 mmHg 82%
23:00 +13°C° 0 mm 1 mps 757 mmHg 82%

8 Diciembre, Martes

Tiempo Temperatura Precipitaciones Viento Presión Humedad
00:00 +13°C° 0 mm 1 mps 757 mmHg 82%
01:00 +13°C° 0 mm 1 mps 757 mmHg 81%
02:00 +13°C° 0 mm 2 mps 757 mmHg 81%
03:00 +13°C° 0 mm 1 mps 757 mmHg 81%
04:00 +13°C° 0 mm 1 mps 758 mmHg 81%
05:00 +12°C° 0 mm 1 mps 758 mmHg 82%
06:00 +13°C° 0 mm 1 mps 758 mmHg 81%
07:00 +13°C° 0 mm 1 mps 758 mmHg 81%
08:00 +13°C° 0 mm 1 mps 758 mmHg 80%
09:00 +14°C° 0 mm 1 mps 758 mmHg 75%
10:00 +15°C° 0 mm 1 mps 759 mmHg 70%
11:00 +18°C° 0 mm 1 mps 759 mmHg 64%
12:00 +18°C° 0.1 mm 1 mps 758 mmHg 60%
13:00 +19°C° 0.1 mm 1 mps 758 mmHg 56%
14:00 +19°C° 0.1 mm 1 mps 758 mmHg 52%
15:00 +18°C° 0 mm 1 mps 758 mmHg 58%
16:00 +16°C° 0 mm 1 mps 758 mmHg 63%
17:00 +14°C° 0 mm 1 mps 759 mmHg 69%
18:00 +14°C° 0 mm 1 mps 759 mmHg 69%
19:00 +14°C° 0 mm 1 mps 759 mmHg 69%
20:00 +14°C° 0 mm 1 mps 760 mmHg 69%
21:00 +14°C° 0 mm 1 mps 760 mmHg 69%
22:00 +14°C° 0 mm 1 mps 760 mmHg 69%
23:00 +14°C° 0 mm 1 mps 760 mmHg 69%

9 Diciembre, Miércoles

Tiempo Temperatura Precipitaciones Viento Presión Humedad
00:00 +13°C° 0 mm 1 mps 760 mmHg 69%
01:00 +13°C° 0 mm 1 mps 760 mmHg 69%
02:00 +13°C° 0 mm 1 mps 760 mmHg 69%
03:00 +12°C° 0 mm 1 mps 760 mmHg 70%
04:00 +12°C° 0 mm 1 mps 760 mmHg 71%
05:00 +12°C° 0 mm 1 mps 760 mmHg 71%
06:00 +12°C° 0 mm 2 mps 761 mmHg 72%
07:00 +12°C° 0 mm 2 mps 761 mmHg 72%
08:00 +12°C° 0 mm 2 mps 761 mmHg 72%
09:00 +14°C° 0 mm 2 mps 761 mmHg 66%
10:00 +15°C° 0 mm 2 mps 761 mmHg 59%
11:00 +18°C° 0 mm 1 mps 761 mmHg 53%
12:00 +19°C° 0 mm 1 mps 761 mmHg 51%
13:00 +18°C° 0 mm 2 mps 761 mmHg 50%
14:00 +18°C° 0 mm 2 mps 760 mmHg 48%
15:00 +17°C° 0 mm 2 mps 760 mmHg 52%
16:00 +16°C° 0 mm 2 mps 760 mmHg 56%
17:00 +15°C° 0 mm 2 mps 760 mmHg 59%
18:00 +15°C° 0 mm 2 mps 760 mmHg 61%
19:00 +14°C° 0 mm 2 mps 761 mmHg 63%
20:00 +14°C° 0 mm 2 mps 761 mmHg 65%
21:00 +13°C° 0 mm 2 mps 761 mmHg 65%
22:00 +13°C° 0 mm 2 mps 761 mmHg 66%
23:00 +13°C° 0 mm 2 mps 761 mmHg 66%

10 Diciembre, Jueves

Tiempo Temperatura Precipitaciones Viento Presión Humedad
00:00 +13°C° 0 mm 2 mps 761 mmHg 65%
01:00 +13°C° 0 mm 2 mps 760 mmHg 65%
02:00 +13°C° 0 mm 2 mps 760 mmHg 65%
03:00 +13°C° 0 mm 2 mps 760 mmHg 65%
04:00 +13°C° 0 mm 2 mps 760 mmHg 65%
05:00 +13°C° 0 mm 2 mps 759 mmHg 65%
06:00 +13°C° 0 mm 2 mps 759 mmHg 66%
07:00 +13°C° 0 mm 2 mps 759 mmHg 66%
08:00 +13°C° 0 mm 2 mps 759 mmHg 66%
09:00 +14°C° 0 mm 2 mps 759 mmHg 61%
10:00 +16°C° 0 mm 2 mps 758 mmHg 56%
11:00 +17°C° 0 mm 2 mps 758 mmHg 51%
12:00 +18°C° 0 mm 3 mps 757 mmHg 48%
13:00 +19°C° 0 mm 3 mps 756 mmHg 46%
14:00 +19°C° 0 mm 3 mps 756 mmHg 43%
15:00 +18°C° 0 mm 3 mps 755 mmHg 46%
16:00 +17°C° 0 mm 3 mps 755 mmHg 49%
17:00 +16°C° 0 mm 3 mps 754 mmHg 52%
18:00 +15°C° 0 mm 4 mps 754 mmHg 51%
19:00 +15°C° 0 mm 4 mps 754 mmHg 50%
20:00 +15°C° 0 mm 5 mps 754 mmHg 50%
21:00 +14°C° 0.3 mm 5 mps 754 mmHg 55%
22:00 +14°C° 0.3 mm 5 mps 754 mmHg 60%
23:00 +14°C° 0.3 mm 4 mps 754 mmHg 66%
Mostrar más

Necesitamos Su Consentimiento

Meteoprog y nuestros Proveedores de Servicios pueden almacenar y acceder a sus datos personales como cookies, identificadores de dispositivo u otras tecnologías similares de su dispositivo y procesar dichos datos para personalizar contenido y anuncios, además de ofrecer funciones de redes sociales y analizar el tráfico.

  • Almacenar y/o acceder a información en su dispositivo

    Se puede almacenar o acceder a cookies, identificadores de dispositivo u otra información de su dispositivo para los fines anteriormente indicados.

  • Anuncios y contenido personalizados, medición de anuncios y contenido, percepciones del público, y desarrollo de productos

    Los anuncios y el contenido pueden personalizarse en base a su perfil. Se pueden añadir más datos para personalizar mejor los anuncios y contenidos. Se puede medir el rendimiento de los anuncios y contenidos. Se puede obtener la percepción sobre el público que ha visto los anuncios y contenidos. Dichos datos pueden usarse para desarrollar o mejorar la experiencia del usuario, sistemas y software.

Al hacer clic en ‘Estoy De Acuerdo’ usted permitirá el uso de las cookies, identificadores de dispositivo, balizas web u otras tecnologías similares indicadas. Su configuración puede cambiarse desde el navegador de su dispositivo.

Para ciertos fines, los intereses legítimos pueden ser considerados por encima del consentimiento. Puede leer más sobre ello en nuestra Política de Privacidad y Cookies.